<?xml version="1.0" encoding="UTF-8" standalone="no" ?>
<gpx xmlns="http://www.topografix.com/GPX/1/1" xmlns:xsi="http://www.w3.org/2001/XMLSchema-instance" xsi:schemaLocation="http://www.topografix.com/GPX/1/1 http://www.topografix.com/GPX/1/1/gpx.xsd" version="1.1" creator="VisuGPX - https://www.visugpx.com">
  <metadata>
    <name>Projet St Jo </name>
  </metadata>
  <trk>
    <name><![CDATA[Projet St Jo ]]></name>
    <trkseg>
      <trkpt lat="49.53426" lon="-1.53104">
        <ele>90.4</ele>
        <time>2023-02-08T11:38:25Z</time>
      </trkpt>
      <trkpt lat="49.53462" lon="-1.53094">
        <ele>88.6</ele>
        <time>2023-02-08T11:38:25Z</time>
      </trkpt>
      <trkpt lat="49.53502" lon="-1.53179">
        <ele>90.4</ele>
        <time>2023-02-08T11:38:25Z</time>
      </trkpt>
      <trkpt lat="49.53555" lon="-1.53295">
        <ele>91.4</ele>
        <time>2023-02-08T11:38:25Z</time>
      </trkpt>
      <trkpt lat="49.53624" lon="-1.5345">
        <ele>89.5</ele>
        <time>2023-02-08T11:38:25Z</time>
      </trkpt>
      <trkpt lat="49.53736" lon="-1.53709">
        <ele>86.3</ele>
        <time>2023-02-08T11:38:25Z</time>
      </trkpt>
      <trkpt lat="49.53815" lon="-1.53875">
        <ele>80.2</ele>
        <time>2023-02-08T11:38:25Z</time>
      </trkpt>
      <trkpt lat="49.53874" lon="-1.53971">
        <ele>74.7</ele>
        <time>2023-02-08T11:38:25Z</time>
      </trkpt>
      <trkpt lat="49.53923" lon="-1.53939">
        <ele>70.6</ele>
        <time>2023-02-08T11:38:25Z</time>
      </trkpt>
      <trkpt lat="49.53966" lon="-1.53894">
        <ele>68.8</ele>
        <time>2023-02-08T11:38:25Z</time>
      </trkpt>
      <trkpt lat="49.54011" lon="-1.53843">
        <ele>67.5</ele>
        <time>2023-02-08T11:38:25Z</time>
      </trkpt>
      <trkpt lat="49.53997" lon="-1.53752">
        <ele>73.4</ele>
        <time>2023-02-08T11:38:25Z</time>
      </trkpt>
      <trkpt lat="49.53987" lon="-1.53648">
        <ele>74.4</ele>
        <time>2023-02-08T11:38:25Z</time>
      </trkpt>
      <trkpt lat="49.53963" lon="-1.53601">
        <ele>78.9</ele>
        <time>2023-02-08T11:38:25Z</time>
      </trkpt>
      <trkpt lat="49.53964" lon="-1.53526">
        <ele>81.3</ele>
        <time>2023-02-08T11:38:25Z</time>
      </trkpt>
      <trkpt lat="49.53989" lon="-1.53377">
        <ele>82.6</ele>
        <time>2023-02-08T11:38:25Z</time>
      </trkpt>
      <trkpt lat="49.5403" lon="-1.53261">
        <ele>84.5</ele>
        <time>2023-02-08T11:38:25Z</time>
      </trkpt>
      <trkpt lat="49.54042" lon="-1.53216">
        <ele>87.9</ele>
        <time>2023-02-08T11:38:25Z</time>
      </trkpt>
      <trkpt lat="49.54011" lon="-1.5319">
        <ele>90</ele>
        <time>2023-02-08T11:38:25Z</time>
      </trkpt>
      <trkpt lat="49.54092" lon="-1.5306">
        <ele>93.5</ele>
        <time>2023-02-08T11:38:25Z</time>
      </trkpt>
      <trkpt lat="49.54127" lon="-1.53115">
        <ele>90.1</ele>
        <time>2023-02-08T11:38:25Z</time>
      </trkpt>
      <trkpt lat="49.5415" lon="-1.53158">
        <ele>89.9</ele>
        <time>2023-02-08T11:38:25Z</time>
      </trkpt>
      <trkpt lat="49.54205" lon="-1.53314">
        <ele>87.6</ele>
        <time>2023-02-08T11:38:25Z</time>
      </trkpt>
      <trkpt lat="49.54329" lon="-1.53615">
        <ele>80.3</ele>
        <time>2023-02-08T11:38:25Z</time>
      </trkpt>
      <trkpt lat="49.54244" lon="-1.53686">
        <ele>77</ele>
        <time>2023-02-08T11:38:25Z</time>
      </trkpt>
      <trkpt lat="49.54235" lon="-1.53818">
        <ele>69</ele>
        <time>2023-02-08T11:38:25Z</time>
      </trkpt>
      <trkpt lat="49.54205" lon="-1.53864">
        <ele>68.5</ele>
        <time>2023-02-08T11:38:25Z</time>
      </trkpt>
      <trkpt lat="49.54214" lon="-1.53967">
        <ele>74.7</ele>
        <time>2023-02-08T11:38:25Z</time>
      </trkpt>
      <trkpt lat="49.54196" lon="-1.53989">
        <ele>75.3</ele>
        <time>2023-02-08T11:38:25Z</time>
      </trkpt>
      <trkpt lat="49.54232" lon="-1.54145">
        <ele>77.3</ele>
        <time>2023-02-08T11:38:25Z</time>
      </trkpt>
      <trkpt lat="49.5431" lon="-1.54324">
        <ele>80.9</ele>
        <time>2023-02-08T11:38:25Z</time>
      </trkpt>
      <trkpt lat="49.54377" lon="-1.5443">
        <ele>76.6</ele>
        <time>2023-02-08T11:38:25Z</time>
      </trkpt>
      <trkpt lat="49.5442" lon="-1.54376">
        <ele>77.5</ele>
        <time>2023-02-08T11:38:25Z</time>
      </trkpt>
      <trkpt lat="49.5448" lon="-1.54481">
        <ele>83.8</ele>
        <time>2023-02-08T11:38:25Z</time>
      </trkpt>
      <trkpt lat="49.5448" lon="-1.54591">
        <ele>86.9</ele>
        <time>2023-02-08T11:38:25Z</time>
      </trkpt>
      <trkpt lat="49.54526" lon="-1.54702">
        <ele>93.8</ele>
        <time>2023-02-08T11:38:25Z</time>
      </trkpt>
      <trkpt lat="49.54606" lon="-1.54918">
        <ele>94.3</ele>
        <time>2023-02-08T11:38:25Z</time>
      </trkpt>
      <trkpt lat="49.54405" lon="-1.55115">
        <ele>83.5</ele>
        <time>2023-02-08T11:38:25Z</time>
      </trkpt>
      <trkpt lat="49.54409" lon="-1.55139">
        <ele>82.4</ele>
        <time>2023-02-08T11:38:25Z</time>
      </trkpt>
      <trkpt lat="49.5449" lon="-1.55261">
        <ele>89.4</ele>
        <time>2023-02-08T11:38:25Z</time>
      </trkpt>
      <trkpt lat="49.54623" lon="-1.55412">
        <ele>102.8</ele>
        <time>2023-02-08T11:38:25Z</time>
      </trkpt>
      <trkpt lat="49.54776" lon="-1.55549">
        <ele>113.5</ele>
        <time>2023-02-08T11:38:25Z</time>
      </trkpt>
      <trkpt lat="49.5488" lon="-1.55634">
        <ele>124.6</ele>
        <time>2023-02-08T11:38:25Z</time>
      </trkpt>
      <trkpt lat="49.54935" lon="-1.5569">
        <ele>130.7</ele>
        <time>2023-02-08T11:38:25Z</time>
      </trkpt>
      <trkpt lat="49.54927" lon="-1.55731">
        <ele>131.1</ele>
        <time>2023-02-08T11:38:25Z</time>
      </trkpt>
      <trkpt lat="49.54915" lon="-1.55779">
        <ele>133.2</ele>
        <time>2023-02-08T11:38:25Z</time>
      </trkpt>
      <trkpt lat="49.54919" lon="-1.55822">
        <ele>138.3</ele>
        <time>2023-02-08T11:38:25Z</time>
      </trkpt>
      <trkpt lat="49.5485" lon="-1.55881">
        <ele>134.6</ele>
        <time>2023-02-08T11:38:25Z</time>
      </trkpt>
      <trkpt lat="49.5485" lon="-1.55915">
        <ele>134</ele>
        <time>2023-02-08T11:38:25Z</time>
      </trkpt>
      <trkpt lat="49.54904" lon="-1.55876">
        <ele>138.7</ele>
        <time>2023-02-08T11:38:25Z</time>
      </trkpt>
      <trkpt lat="49.54964" lon="-1.55867">
        <ele>144.4</ele>
        <time>2023-02-08T11:38:25Z</time>
      </trkpt>
      <trkpt lat="49.55005" lon="-1.5589">
        <ele>144</ele>
        <time>2023-02-08T11:38:25Z</time>
      </trkpt>
      <trkpt lat="49.55057" lon="-1.55775">
        <ele>147.9</ele>
        <time>2023-02-08T11:38:25Z</time>
      </trkpt>
      <trkpt lat="49.5508" lon="-1.55661">
        <ele>151.3</ele>
        <time>2023-02-08T11:38:25Z</time>
      </trkpt>
      <trkpt lat="49.55114" lon="-1.55539">
        <ele>154.2</ele>
        <time>2023-02-08T11:38:25Z</time>
      </trkpt>
      <trkpt lat="49.55159" lon="-1.55421">
        <ele>156</ele>
        <time>2023-02-08T11:38:25Z</time>
      </trkpt>
      <trkpt lat="49.55225" lon="-1.55279">
        <ele>158.7</ele>
        <time>2023-02-08T11:38:25Z</time>
      </trkpt>
      <trkpt lat="49.55343" lon="-1.55063">
        <ele>157.2</ele>
        <time>2023-02-08T11:38:25Z</time>
      </trkpt>
      <trkpt lat="49.55535" lon="-1.55262">
        <ele>132.8</ele>
        <time>2023-02-08T11:38:25Z</time>
      </trkpt>
      <trkpt lat="49.55677" lon="-1.55069">
        <ele>130.6</ele>
        <time>2023-02-08T11:38:25Z</time>
      </trkpt>
      <trkpt lat="49.56089" lon="-1.54527">
        <ele>147.7</ele>
        <time>2023-02-08T11:38:25Z</time>
      </trkpt>
      <trkpt lat="49.56076" lon="-1.54444">
        <ele>154.5</ele>
        <time>2023-02-08T11:38:25Z</time>
      </trkpt>
      <trkpt lat="49.56036" lon="-1.54459">
        <ele>155.1</ele>
        <time>2023-02-08T11:38:25Z</time>
      </trkpt>
      <trkpt lat="49.55949" lon="-1.54284">
        <ele>161</ele>
        <time>2023-02-08T11:38:25Z</time>
      </trkpt>
      <trkpt lat="49.55861" lon="-1.54079">
        <ele>164.1</ele>
        <time>2023-02-08T11:38:25Z</time>
      </trkpt>
      <trkpt lat="49.55719" lon="-1.53828">
        <ele>164.8</ele>
        <time>2023-02-08T11:38:25Z</time>
      </trkpt>
      <trkpt lat="49.55819" lon="-1.53736">
        <ele>164.6</ele>
        <time>2023-02-08T11:38:25Z</time>
      </trkpt>
      <trkpt lat="49.56341" lon="-1.533">
        <ele>149.4</ele>
        <time>2023-02-08T11:38:25Z</time>
      </trkpt>
      <trkpt lat="49.56444" lon="-1.5344">
        <ele>146.9</ele>
        <time>2023-02-08T11:38:25Z</time>
      </trkpt>
      <trkpt lat="49.56474" lon="-1.53413">
        <ele>149.8</ele>
        <time>2023-02-08T11:38:25Z</time>
      </trkpt>
      <trkpt lat="49.56535" lon="-1.53198">
        <ele>146.8</ele>
        <time>2023-02-08T11:38:25Z</time>
      </trkpt>
      <trkpt lat="49.56625" lon="-1.52928">
        <ele>141</ele>
        <time>2023-02-08T11:38:25Z</time>
      </trkpt>
      <trkpt lat="49.56671" lon="-1.52814">
        <ele>138.1</ele>
        <time>2023-02-08T11:38:25Z</time>
      </trkpt>
      <trkpt lat="49.56636" lon="-1.52739">
        <ele>127.6</ele>
        <time>2023-02-08T11:38:25Z</time>
      </trkpt>
      <trkpt lat="49.56594" lon="-1.52712">
        <ele>124.3</ele>
        <time>2023-02-08T11:38:25Z</time>
      </trkpt>
      <trkpt lat="49.56557" lon="-1.52717">
        <ele>121.9</ele>
        <time>2023-02-08T11:38:25Z</time>
      </trkpt>
      <trkpt lat="49.56518" lon="-1.52685">
        <ele>119.9</ele>
        <time>2023-02-08T11:38:25Z</time>
      </trkpt>
      <trkpt lat="49.56315" lon="-1.52531">
        <ele>106</ele>
        <time>2023-02-08T11:38:25Z</time>
      </trkpt>
      <trkpt lat="49.56364" lon="-1.52456">
        <ele>107.9</ele>
        <time>2023-02-08T11:38:25Z</time>
      </trkpt>
      <trkpt lat="49.56536" lon="-1.52214">
        <ele>110.1</ele>
        <time>2023-02-08T11:38:25Z</time>
      </trkpt>
      <trkpt lat="49.56731" lon="-1.51962">
        <ele>106.8</ele>
        <time>2023-02-08T11:38:25Z</time>
      </trkpt>
      <trkpt lat="49.56849" lon="-1.51743">
        <ele>107.3</ele>
        <time>2023-02-08T11:38:25Z</time>
      </trkpt>
      <trkpt lat="49.56856" lon="-1.5155">
        <ele>97.1</ele>
        <time>2023-02-08T11:38:25Z</time>
      </trkpt>
      <trkpt lat="49.5687" lon="-1.51358">
        <ele>99.2</ele>
        <time>2023-02-08T11:38:25Z</time>
      </trkpt>
      <trkpt lat="49.56945" lon="-1.51184">
        <ele>110</ele>
        <time>2023-02-08T11:38:25Z</time>
      </trkpt>
      <trkpt lat="49.56987" lon="-1.5115">
        <ele>111.4</ele>
        <time>2023-02-08T11:38:25Z</time>
      </trkpt>
      <trkpt lat="49.57023" lon="-1.51023">
        <ele>118.1</ele>
        <time>2023-02-08T11:38:25Z</time>
      </trkpt>
      <trkpt lat="49.5711" lon="-1.50779">
        <ele>125.3</ele>
        <time>2023-02-08T11:38:25Z</time>
      </trkpt>
      <trkpt lat="49.57227" lon="-1.50674">
        <ele>124.3</ele>
        <time>2023-02-08T11:38:25Z</time>
      </trkpt>
      <trkpt lat="49.57104" lon="-1.50308">
        <ele>116.2</ele>
        <time>2023-02-08T11:38:25Z</time>
      </trkpt>
      <trkpt lat="49.5687" lon="-1.50448">
        <ele>126.9</ele>
        <time>2023-02-08T11:38:25Z</time>
      </trkpt>
      <trkpt lat="49.56743" lon="-1.50747">
        <ele>116.8</ele>
        <time>2023-02-08T11:38:25Z</time>
      </trkpt>
      <trkpt lat="49.56709" lon="-1.50837">
        <ele>112.9</ele>
        <time>2023-02-08T11:38:25Z</time>
      </trkpt>
      <trkpt lat="49.56687" lon="-1.50955">
        <ele>109.1</ele>
        <time>2023-02-08T11:38:25Z</time>
      </trkpt>
      <trkpt lat="49.56653" lon="-1.51054">
        <ele>104.7</ele>
        <time>2023-02-08T11:38:25Z</time>
      </trkpt>
      <trkpt lat="49.56618" lon="-1.51185">
        <ele>99.7</ele>
        <time>2023-02-08T11:38:25Z</time>
      </trkpt>
      <trkpt lat="49.56558" lon="-1.51187">
        <ele>97.6</ele>
        <time>2023-02-08T11:38:25Z</time>
      </trkpt>
      <trkpt lat="49.56359" lon="-1.50936">
        <ele>90.5</ele>
        <time>2023-02-08T11:38:25Z</time>
      </trkpt>
      <trkpt lat="49.56183" lon="-1.50783">
        <ele>85.4</ele>
        <time>2023-02-08T11:38:25Z</time>
      </trkpt>
      <trkpt lat="49.55959" lon="-1.50708">
        <ele>87.5</ele>
        <time>2023-02-08T11:38:25Z</time>
      </trkpt>
      <trkpt lat="49.55553" lon="-1.50531">
        <ele>84.9</ele>
        <time>2023-02-08T11:38:25Z</time>
      </trkpt>
      <trkpt lat="49.55483" lon="-1.50621">
        <ele>77.2</ele>
        <time>2023-02-08T11:38:25Z</time>
      </trkpt>
      <trkpt lat="49.55392" lon="-1.50672">
        <ele>80.6</ele>
        <time>2023-02-08T11:38:25Z</time>
      </trkpt>
      <trkpt lat="49.55393" lon="-1.50732">
        <ele>79</ele>
        <time>2023-02-08T11:38:25Z</time>
      </trkpt>
      <trkpt lat="49.55317" lon="-1.50743">
        <ele>85.8</ele>
        <time>2023-02-08T11:38:25Z</time>
      </trkpt>
      <trkpt lat="49.55138" lon="-1.50578">
        <ele>108.8</ele>
        <time>2023-02-08T11:38:25Z</time>
      </trkpt>
      <trkpt lat="49.55215" lon="-1.50349">
        <ele>109.5</ele>
        <time>2023-02-08T11:38:25Z</time>
      </trkpt>
      <trkpt lat="49.54734" lon="-1.49768">
        <ele>92.5</ele>
        <time>2023-02-08T11:38:25Z</time>
      </trkpt>
      <trkpt lat="49.54904" lon="-1.49159">
        <ele>98.6</ele>
        <time>2023-02-08T11:38:25Z</time>
      </trkpt>
      <trkpt lat="49.54595" lon="-1.48969">
        <ele>79.8</ele>
        <time>2023-02-08T11:38:25Z</time>
      </trkpt>
      <trkpt lat="49.54589" lon="-1.49017">
        <ele>78.3</ele>
        <time>2023-02-08T11:38:25Z</time>
      </trkpt>
      <trkpt lat="49.54562" lon="-1.4907">
        <ele>75.5</ele>
        <time>2023-02-08T11:38:25Z</time>
      </trkpt>
      <trkpt lat="49.54544" lon="-1.49127">
        <ele>72.3</ele>
        <time>2023-02-08T11:38:25Z</time>
      </trkpt>
      <trkpt lat="49.54506" lon="-1.49187">
        <ele>75.7</ele>
        <time>2023-02-08T11:38:25Z</time>
      </trkpt>
      <trkpt lat="49.5451" lon="-1.49229">
        <ele>78.7</ele>
        <time>2023-02-08T11:38:25Z</time>
      </trkpt>
      <trkpt lat="49.54473" lon="-1.49348">
        <ele>84.4</ele>
        <time>2023-02-08T11:38:25Z</time>
      </trkpt>
      <trkpt lat="49.54504" lon="-1.49364">
        <ele>87.6</ele>
        <time>2023-02-08T11:38:25Z</time>
      </trkpt>
      <trkpt lat="49.54466" lon="-1.49499">
        <ele>87</ele>
        <time>2023-02-08T11:38:25Z</time>
      </trkpt>
      <trkpt lat="49.54468" lon="-1.49516">
        <ele>87.2</ele>
        <time>2023-02-08T11:38:25Z</time>
      </trkpt>
      <trkpt lat="49.5446" lon="-1.49596">
        <ele>86.9</ele>
        <time>2023-02-08T11:38:25Z</time>
      </trkpt>
      <trkpt lat="49.54412" lon="-1.49582">
        <ele>83.5</ele>
        <time>2023-02-08T11:38:25Z</time>
      </trkpt>
      <trkpt lat="49.54372" lon="-1.49638">
        <ele>78.8</ele>
        <time>2023-02-08T11:38:25Z</time>
      </trkpt>
      <trkpt lat="49.54369" lon="-1.49664">
        <ele>76.4</ele>
        <time>2023-02-08T11:38:25Z</time>
      </trkpt>
      <trkpt lat="49.54371" lon="-1.49677">
        <ele>75.9</ele>
        <time>2023-02-08T11:38:25Z</time>
      </trkpt>
      <trkpt lat="49.54357" lon="-1.49695">
        <ele>75</ele>
        <time>2023-02-08T11:38:25Z</time>
      </trkpt>
      <trkpt lat="49.54323" lon="-1.49712">
        <ele>75.8</ele>
        <time>2023-02-08T11:38:25Z</time>
      </trkpt>
      <trkpt lat="49.54303" lon="-1.49707">
        <ele>75.8</ele>
        <time>2023-02-08T11:38:25Z</time>
      </trkpt>
      <trkpt lat="49.54286" lon="-1.49689">
        <ele>75</ele>
        <time>2023-02-08T11:38:25Z</time>
      </trkpt>
      <trkpt lat="49.54263" lon="-1.49635">
        <ele>75.4</ele>
        <time>2023-02-08T11:38:25Z</time>
      </trkpt>
      <trkpt lat="49.54242" lon="-1.49585">
        <ele>74.4</ele>
        <time>2023-02-08T11:38:25Z</time>
      </trkpt>
      <trkpt lat="49.5421" lon="-1.49531">
        <ele>74.5</ele>
        <time>2023-02-08T11:38:25Z</time>
      </trkpt>
      <trkpt lat="49.54155" lon="-1.49416">
        <ele>71.4</ele>
        <time>2023-02-08T11:38:25Z</time>
      </trkpt>
      <trkpt lat="49.54071" lon="-1.49259">
        <ele>66.4</ele>
        <time>2023-02-08T11:38:25Z</time>
      </trkpt>
      <trkpt lat="49.54031" lon="-1.49198">
        <ele>64.6</ele>
        <time>2023-02-08T11:38:25Z</time>
      </trkpt>
      <trkpt lat="49.54003" lon="-1.49145">
        <ele>64.1</ele>
        <time>2023-02-08T11:38:25Z</time>
      </trkpt>
      <trkpt lat="49.53969" lon="-1.49135">
        <ele>63.6</ele>
        <time>2023-02-08T11:38:25Z</time>
      </trkpt>
      <trkpt lat="49.5391" lon="-1.49132">
        <ele>62.9</ele>
        <time>2023-02-08T11:38:25Z</time>
      </trkpt>
      <trkpt lat="49.5382" lon="-1.49138">
        <ele>61.6</ele>
        <time>2023-02-08T11:38:25Z</time>
      </trkpt>
      <trkpt lat="49.53796" lon="-1.49127">
        <ele>60.8</ele>
        <time>2023-02-08T11:38:25Z</time>
      </trkpt>
      <trkpt lat="49.53754" lon="-1.49108">
        <ele>58.9</ele>
        <time>2023-02-08T11:38:25Z</time>
      </trkpt>
      <trkpt lat="49.53685" lon="-1.49056">
        <ele>53.9</ele>
        <time>2023-02-08T11:38:25Z</time>
      </trkpt>
      <trkpt lat="49.53685" lon="-1.49233">
        <ele>56.4</ele>
        <time>2023-02-08T11:38:25Z</time>
      </trkpt>
      <trkpt lat="49.5368" lon="-1.49337">
        <ele>57.9</ele>
        <time>2023-02-08T11:38:25Z</time>
      </trkpt>
      <trkpt lat="49.53694" lon="-1.49433">
        <ele>59.1</ele>
        <time>2023-02-08T11:38:25Z</time>
      </trkpt>
      <trkpt lat="49.53707" lon="-1.49576">
        <ele>62.6</ele>
        <time>2023-02-08T11:38:25Z</time>
      </trkpt>
      <trkpt lat="49.53717" lon="-1.49643">
        <ele>62.8</ele>
        <time>2023-02-08T11:38:25Z</time>
      </trkpt>
      <trkpt lat="49.53792" lon="-1.49925">
        <ele>67</ele>
        <time>2023-02-08T11:38:25Z</time>
      </trkpt>
      <trkpt lat="49.53795" lon="-1.50003">
        <ele>66.2</ele>
        <time>2023-02-08T11:38:25Z</time>
      </trkpt>
      <trkpt lat="49.53803" lon="-1.50114">
        <ele>67.3</ele>
        <time>2023-02-08T11:38:25Z</time>
      </trkpt>
      <trkpt lat="49.53807" lon="-1.50233">
        <ele>70.4</ele>
        <time>2023-02-08T11:38:25Z</time>
      </trkpt>
      <trkpt lat="49.53815" lon="-1.5039">
        <ele>72.3</ele>
        <time>2023-02-08T11:38:25Z</time>
      </trkpt>
      <trkpt lat="49.53833" lon="-1.50496">
        <ele>74.6</ele>
        <time>2023-02-08T11:38:25Z</time>
      </trkpt>
      <trkpt lat="49.53854" lon="-1.50615">
        <ele>76.9</ele>
        <time>2023-02-08T11:38:25Z</time>
      </trkpt>
      <trkpt lat="49.53879" lon="-1.50798">
        <ele>76.6</ele>
        <time>2023-02-08T11:38:25Z</time>
      </trkpt>
      <trkpt lat="49.5389" lon="-1.50885">
        <ele>74.9</ele>
        <time>2023-02-08T11:38:25Z</time>
      </trkpt>
      <trkpt lat="49.53891" lon="-1.50932">
        <ele>72.8</ele>
        <time>2023-02-08T11:38:25Z</time>
      </trkpt>
      <trkpt lat="49.53904" lon="-1.50977">
        <ele>72.9</ele>
        <time>2023-02-08T11:38:25Z</time>
      </trkpt>
      <trkpt lat="49.53919" lon="-1.50985">
        <ele>74.2</ele>
        <time>2023-02-08T11:38:25Z</time>
      </trkpt>
      <trkpt lat="49.53902" lon="-1.51028">
        <ele>76.2</ele>
        <time>2023-02-08T11:38:25Z</time>
      </trkpt>
      <trkpt lat="49.53843" lon="-1.51065">
        <ele>76.7</ele>
        <time>2023-02-08T11:38:25Z</time>
      </trkpt>
      <trkpt lat="49.53828" lon="-1.51081">
        <ele>77.6</ele>
        <time>2023-02-08T11:38:25Z</time>
      </trkpt>
      <trkpt lat="49.5377" lon="-1.51175">
        <ele>80.2</ele>
        <time>2023-02-08T11:38:25Z</time>
      </trkpt>
      <trkpt lat="49.53749" lon="-1.51287">
        <ele>83.4</ele>
        <time>2023-02-08T11:38:25Z</time>
      </trkpt>
      <trkpt lat="49.53756" lon="-1.51416">
        <ele>81.3</ele>
        <time>2023-02-08T11:38:25Z</time>
      </trkpt>
      <trkpt lat="49.53725" lon="-1.51435">
        <ele>82.1</ele>
        <time>2023-02-08T11:38:25Z</time>
      </trkpt>
      <trkpt lat="49.5368" lon="-1.51467">
        <ele>84</ele>
        <time>2023-02-08T11:38:25Z</time>
      </trkpt>
      <trkpt lat="49.53607" lon="-1.51561">
        <ele>85.1</ele>
        <time>2023-02-08T11:38:25Z</time>
      </trkpt>
      <trkpt lat="49.53539" lon="-1.51522">
        <ele>83.1</ele>
        <time>2023-02-08T11:38:25Z</time>
      </trkpt>
      <trkpt lat="49.53502" lon="-1.51518">
        <ele>81.6</ele>
        <time>2023-02-08T11:38:25Z</time>
      </trkpt>
      <trkpt lat="49.53537" lon="-1.51619">
        <ele>81.8</ele>
        <time>2023-02-08T11:38:25Z</time>
      </trkpt>
      <trkpt lat="49.53644" lon="-1.51808">
        <ele>92.8</ele>
        <time>2023-02-08T11:38:25Z</time>
      </trkpt>
      <trkpt lat="49.5375" lon="-1.51981">
        <ele>88.7</ele>
        <time>2023-02-08T11:38:25Z</time>
      </trkpt>
      <trkpt lat="49.53803" lon="-1.52101">
        <ele>82.8</ele>
        <time>2023-02-08T11:38:25Z</time>
      </trkpt>
      <trkpt lat="49.53814" lon="-1.52136">
        <ele>83.9</ele>
        <time>2023-02-08T11:38:25Z</time>
      </trkpt>
      <trkpt lat="49.53874" lon="-1.5232">
        <ele>87.3</ele>
        <time>2023-02-08T11:38:25Z</time>
      </trkpt>
      <trkpt lat="49.53921" lon="-1.52478">
        <ele>89.5</ele>
        <time>2023-02-08T11:38:25Z</time>
      </trkpt>
      <trkpt lat="49.53963" lon="-1.52598">
        <ele>93.2</ele>
        <time>2023-02-08T11:38:25Z</time>
      </trkpt>
      <trkpt lat="49.53943" lon="-1.52637">
        <ele>93.4</ele>
        <time>2023-02-08T11:38:25Z</time>
      </trkpt>
      <trkpt lat="49.53975" lon="-1.52746">
        <ele>96.8</ele>
        <time>2023-02-08T11:38:25Z</time>
      </trkpt>
      <trkpt lat="49.53981" lon="-1.52776">
        <ele>97.6</ele>
        <time>2023-02-08T11:38:25Z</time>
      </trkpt>
      <trkpt lat="49.54026" lon="-1.52866">
        <ele>99.7</ele>
        <time>2023-02-08T11:38:25Z</time>
      </trkpt>
      <trkpt lat="49.54043" lon="-1.52909">
        <ele>99.9</ele>
        <time>2023-02-08T11:38:25Z</time>
      </trkpt>
      <trkpt lat="49.54068" lon="-1.52978">
        <ele>97.7</ele>
        <time>2023-02-08T11:38:25Z</time>
      </trkpt>
      <trkpt lat="49.54099" lon="-1.53042">
        <ele>93.9</ele>
        <time>2023-02-08T11:38:25Z</time>
      </trkpt>
      <trkpt lat="49.54009" lon="-1.53191">
        <ele>90.1</ele>
        <time>2023-02-08T11:38:25Z</time>
      </trkpt>
      <trkpt lat="49.53928" lon="-1.53163">
        <ele>96.9</ele>
        <time>2023-02-08T11:38:25Z</time>
      </trkpt>
      <trkpt lat="49.53905" lon="-1.53209">
        <ele>97.2</ele>
        <time>2023-02-08T11:38:25Z</time>
      </trkpt>
      <trkpt lat="49.53867" lon="-1.53163">
        <ele>101.3</ele>
        <time>2023-02-08T11:38:25Z</time>
      </trkpt>
      <trkpt lat="49.53796" lon="-1.5306">
        <ele>102.9</ele>
        <time>2023-02-08T11:38:25Z</time>
      </trkpt>
      <trkpt lat="49.53737" lon="-1.53099">
        <ele>99.9</ele>
        <time>2023-02-08T11:38:25Z</time>
      </trkpt>
      <trkpt lat="49.53659" lon="-1.53061">
        <ele>95.9</ele>
        <time>2023-02-08T11:38:25Z</time>
      </trkpt>
      <trkpt lat="49.536" lon="-1.53078">
        <ele>94.7</ele>
        <time>2023-02-08T11:38:25Z</time>
      </trkpt>
      <trkpt lat="49.53556" lon="-1.53093">
        <ele>93.4</ele>
        <time>2023-02-08T11:38:25Z</time>
      </trkpt>
      <trkpt lat="49.5351" lon="-1.53073">
        <ele>90.3</ele>
        <time>2023-02-08T11:38:25Z</time>
      </trkpt>
      <trkpt lat="49.53463" lon="-1.53091">
        <ele>88.5</ele>
        <time>2023-02-08T11:38:25Z</time>
      </trkpt>
      <trkpt lat="49.5343" lon="-1.53101">
        <ele>90.1</ele>
        <time>2023-02-08T11:38:25Z</time>
      </trkpt>
    </trkseg>
  </trk>
</gpx>